GW3047 Weather Reports


Display with metric or nautical units.
time (UTC)temp
F
wind
direction
speed
MPH
gust
MPH
rain 1hr
in
rain 24hr
in
rain mn
in
humidity
%
barometer
mb
20260509091606 57 199 5.0 9.0 0.00 0.00 0.00 48 1012.2
20260509090056 56 208 5.0 9.0 0.00 0.00 0.00 49 1012.2
20260509084558 56 197 3.0 8.0 0.00 0.00 0.00 50 1012.1
20260509083054 56 170 3.0 7.0 0.00 0.00 0.00 49 1012.0
20260509081603 56 206 4.0 9.0 0.00 0.00 0.00 49 1012.2
20260509080059 56 185 3.0 10.0 0.00 0.00 0.00 50 1012.4
20260509074556 55 189 1.0 4.0 0.00 0.00 0.00 51 1012.4
20260509073057 55 189 1.0 4.0 0.00 0.00 0.00 51 1012.6
20260509071559 55 189 0.0 5.0 0.00 0.00 0.00 53 1012.7
20260509070104 55 191 1.0 4.0 0.00 0.00 0.00 54 1012.6
20260509064557 55 0 0.0 3.0 0.00 0.00 0.00 55 1012.6
20260509063055 55 195 1.0 3.0 0.00 0.00 0.00 54 1012.9
20260509061613 56 195 0.0 5.0 0.00 0.00 0.00 55 1013.1
20260509060118 56 195 1.0 4.0 0.00 0.00 0.00 56 1013.2
20260509054600 56 195 3.0 5.0 0.00 0.00 0.00 56 1013.3
20260509053056 56 106 1.0 3.0 0.00 0.00 0.00 57 1013.1
20260509051559 57 34 0.0 2.0 0.00 0.00 0.00 58 1012.9
20260509050127 57 0 0.0 2.0 0.00 0.00 0.00 56 1012.9
20260509044603 58 34 1.0 2.0 0.00 0.00 0.00 54 1012.9
20260509043054 59 0 0.0 1.0 0.00 0.00 0.00 51 1012.7
20260509041555 59 0 0.0 1.0 0.00 0.00 0.00 49 1012.7
20260509040057 60 0 0.0 0.0 0.00 0.00 0.00 48 1012.6
20260509034557 61 34 0.0 1.0 0.00 0.00 0.00 46 1012.4
20260509033059 62 0 0.0 0.0 0.00 0.00 0.00 44 1012.4
20260509031600 63 0 0.0 1.0 0.00 0.00 0.00 43 1012.3
20260509030057 64 0 0.0 1.0 0.00 0.00 0.00 41 1012.1
20260509024602 65 34 0.0 1.0 0.00 0.00 0.00 40 1011.9
20260509023109 66 0 0.0 1.0 0.00 0.00 0.00 38 1011.8
20260509021559 67 0 0.0 1.0 0.00 0.00 0.00 37 1011.8
20260509020100 68 0 0.0 1.0 0.00 0.00 0.00 35 1011.8
20260509014558 70 0 0.0 1.0 0.00 0.00 0.00 33 1011.8
20260509013103 71 0 0.0 2.0 0.00 0.00 0.00 31 1011.8
20260509011556 72 0 0.0 3.0 0.00 0.00 0.00 28 1011.6
20260509010057 73 0 0.0 5.0 0.00 0.00 0.00 27 1011.5
20260509004600 74 329 1.0 8.0 0.00 0.00 0.00 27 1011.3
20260509003106 74 328 2.0 11.0 0.00 0.00 0.00 27 1011.4
20260509001557 75 64 2.0 11.0 0.00 0.00 0.00 26 1011.2
20260509000110 75 345 2.0 9.0 0.00 0.00 0.00 26 1011.3
20260508234559 75 1 2.0 10.0 0.00 0.00 0.00 26 1011.4
20260508233103 75 31 4.0 12.0 0.00 0.00 0.00 25 1011.4
20260508231559 75 38 4.0 13.0 0.00 0.00 0.00 26 1011.3
20260508230107 75 348 2.0 10.0 0.00 0.00 0.00 26 1011.3
20260508224557 75 19 4.0 14.0 0.00 0.00 0.00 25 1011.3
20260508223058 74 39 4.0 14.0 0.00 0.00 0.00 27 1011.4
20260508221604 75 33 6.0 13.0 0.00 0.00 0.00 26 1011.4
20260508220059 76 29 4.0 13.0 0.00 0.00 0.00 26 1011.5
20260508214611 76 1 4.0 11.0 0.00 0.00 0.00 26 1011.5
20260508213058 77 312 7.0 17.0 0.00 0.00 0.00 26 1011.6
20260508211600 77 324 2.0 10.0 0.00 0.00 0.00 27 1011.7
20260508210057 76 86 3.0 11.0 0.00 0.00 0.00 28 1011.7
20260508204604 76 333 5.0 12.0 0.00 0.00 0.00 27 1011.8
20260508203055 75 314 6.0 17.0 0.00 0.00 0.00 27 1011.8
20260508201607 75 352 5.0 16.0 0.00 0.00 0.00 28 1011.8
20260508200058 76 338 3.0 16.0 0.00 0.00 0.00 27 1011.9
20260508194621 75 54 5.0 15.0 0.00 0.00 0.00 31 1011.9
20260508193107 75 332 4.0 16.0 0.00 0.00 0.00 29 1012.1
20260508191602 75 352 6.0 15.0 0.00 0.00 0.00 32 1012.1
20260508190100 74 337 6.0 16.0 0.00 0.00 0.00 30 1012.2
20260508184556 73 36 8.0 23.0 0.00 0.00 0.00 31 1012.2
20260508183056 73 324 7.0 20.0 0.00 0.00 0.00 31 1012.1
20260508181636 72 337 6.0 19.0 0.00 0.00 0.00 32 1012.3
20260508174603 73 16 7.0 16.0 0.00 0.00 0.00 33 1012.5
20260508173057 73 343 6.0 14.0 0.00 0.00 0.00 35 1012.4
20260508171556 71 344 7.0 18.0 0.00 0.00 0.00 38 1012.5
20260508170057 71 352 6.0 18.0 0.00 0.00 0.00 39 1012.6
20260508164554 71 321 5.0 17.0 0.00 0.00 0.00 39 1012.7
20260508163105 70 340 7.0 15.0 0.00 0.00 0.00 39 1012.8
20260508161605 70 41 5.0 13.0 0.00 0.00 0.00 41 1012.6
20260508160057 68 337 5.0 16.0 0.00 0.00 0.00 46 1012.5
20260508154559 67 74 5.0 16.0 0.00 0.00 0.00 46 1012.6
20260508153056 67 332 3.0 20.0 0.00 0.00 0.00 50 1012.7
20260508151605 66 10 7.0 20.0 0.00 0.00 0.00 49 1012.4
20260508150057 65 345 7.0 17.0 0.00 0.00 0.00 49 1012.4
20260508144553 64 35 5.0 16.0 0.00 0.00 0.00 53 1012.3
20260508143055 64 307 6.0 15.0 0.00 0.00 0.00 54 1012.4
20260508141555 62 345 3.0 12.0 0.00 0.00 0.00 57 1012.1
20260508140054 60 349 5.0 11.0 0.00 0.00 0.00 59 1012.0
20260508134559 58 331 2.0 6.0 0.00 0.00 0.00 60 1012.0
20260508133105 56 270 1.0 9.0 0.00 0.00 0.00 63 1011.9
20260508131558 54 275 2.0 6.0 0.00 0.00 0.00 65 1011.7
20260508130059 53 328 2.0 5.0 0.00 0.00 0.00 66 1011.5
20260508124554 52 337 2.0 5.0 0.00 0.00 0.00 68 1011.2
20260508123106 52 1 0.0 2.0 0.00 0.00 0.00 69 1010.8
20260508121605 52 0 0.0 1.0 0.00 0.00 0.00 68 1010.6
20260508120057 53 0 0.0 1.0 0.00 0.00 0.00 66 1010.4
20260508114558 53 0 0.0 2.0 0.00 0.00 0.00 64 1010.7
20260508113056 53 0 0.0 2.0 0.00 0.00 0.00 62 1010.4
20260508111606 53 276 1.0 2.0 0.00 0.00 0.00 62 1010.7
20260508104557 52 0 0.0 4.0 0.00 0.00 0.00 61 1010.3
20260508103058 51 20 1.0 3.0 0.00 0.00 0.00 61 1010.7
20260508101557 51 270 1.0 3.0 0.00 0.00 0.00 60 1010.8
20260508100057 50 265 1.0 3.0 0.00 0.00 0.00 64 1010.7
20260508094607 50 264 0.0 2.0 0.00 0.00 0.00 65 1010.3
20260508093058 50 0 0.0 2.0 0.00 0.00 0.00 63 1010.5